{"data":{"norad_id":64170,"epoch":"2026-09-20T05:27:29.823264Z","epoch_age_seconds":163901,"freshness":"FRESH","line1":"1 64170U 25113A   26263.22742851  .00019556  00000+0  63951-3 0  9992","line2":"2 64170  53.1579 265.8335 0001235  84.6427 275.4716 15.31738676 74879","mean_motion":15.31738676,"eccentricity":0.0001235,"inclination_deg":53.1579,"raan_deg":265.8335,"arg_perigee_deg":84.6427,"mean_anomaly_deg":275.4716,"bstar":0.00063951,"rev_number":7487,"period_min":94.01081415274,"perigee_km":469.77888443733,"apogee_km":471.47052857884,"semimajor_km":6848.7617065081,"source":"CELESTRAK","updated_at":"2026-09-21T09:00:35.242600Z"}}